Create Custom Reports and Graphics: Custom Report

North/Central Map

Map

15 Minute Data

South County Map

Map

15 Minute Data

Northern Sonoma County Latest

13 Stations

15 Minute Data | America/Los_Angeles
as of 7/21/19 10:47 AM PDT
Station Date Time Temp (°F) RH (%) Dew Pt (°F) Wind Spd (mph) Wind Dir (°) Wind Gust (mph) Latest Rain (In) Daily Rain (In) Daily Min Temp (°F) Daily Max Temp (°F)
Cooley-Rockpile 7/21/19 1000 67.9   13.8 62   38 54.6   0.5 2.5 SE | 139 5.3   0.2 0.00 0.00 55.6   4.8 70.2   15.3
Cooley Lower Remote 7/21/19 1000 64.7   8.9 71   20 55.1   1.8 1.3 SSW | 192 3.1   1.3 0.00 0.00 52.4   0.3 66.3   9.6
Rancho Alexander-Cloverdale 7/21/19 1045 66.2   3.2 67   5 55.0   1.0 2.8 S | 174 7.0   2.5 0.00 0.00 52.8   3.6 67.1   3.6
Ranch 38 (Cloverdale-SE) 7/21/19 1045 63.5   3.6 75   6 55.4   1.5 6.1 S | 181 9.5   1.2 0.00 0.00 52.2   2.2 65.1   3.6
Hoffman - Geyserville 7/21/19 1045 64.8   4.5 70   9 54.6   1.0 2.2 ESE | 118 6.5   0.7 0.00 0.00 52.9   2.9 65.8   4.9
Geyserville Ranch 3 7/21/19 1045 66.9   5.2 66   12 55.0   0.4 1.9 E | 95 5.9   0.3 0.00 0.00 53.3   2.9 68.3   6.1
Ranch 40 (Geyserville-NE) 7/21/19 1045 64.8   5.2 73   10 56.0   1.4 3.9 SSW | 206 7.2   1.3 0.00 0.00 52.0   1.4 66.4   6.1
Geyserville - S (Nervo Station) 7/21/19 1045 66.1   4.5 66   10 54.4   0.3 2.3 SSE | 151 6.1   2.7 0.00 0.00 52.4   2.6 67.0   4.6
River Oaks (Lytton) 7/21/19 1045 66.0   4.5 67   11 54.5   0.1 1.6 NNW | 333 4.6   0.6 0.00 0.00 52.1   4.0 66.7   5.0
Piccolo - Alexander Valley 7/21/19 1045 64.6   2.9 67   5 53.6   0.7 1.5 SW | 233 4.6   1.3 0.00 0.00 52.2   3.9 65.9   3.4
Red Fan 7/21/19 1045 66.7   4.5 67   10 55.3   0.5 2.0 SW | 232 4.9   0.1 0.00 0.00 53.1   3.3 67.3   4.7
Landslide 7/21/19 1045 65.5   3.8 68   9 54.7   0.2 2.0 SSW | 198 5.1   1.2 0.00 0.00 52.6   3.6 66.3   4.2
Dry Creek Valley 7/21/19 1045 63.2   1.5 72   4 54.2   0.1 3.4 S | 173 6.5   0.5 0.00 0.00 53.4   3.8 63.5   0.9
Max     67.9 75 56.0 6.1 - 9.5 0.00 0.00 55.6 70.2
Avg     65.5 68 54.8 2.6 - 5.9 0.00 - - -
Min     63.2 62 53.6 1.3 - 3.1 0.00 0.00 52.0 63.5

Central Sonoma County Latest

22 Stations

15 Minute Data | America/Los_Angeles
as of 7/21/19 10:47 AM PDT
Station Date Time Temp (°F) RH (%) Dew Pt (°F) Wind Spd (mph) Wind Dir (°) Wind Gust (mph) Latest Rain (In) Daily Rain (In) Daily Min Temp (°F) Daily Max Temp (°F)
Healdsburg - S (Sodini) 7/21/19 1045 63.6   0.1 70   1 53.8   0.4 2.2 SSW | 205 4.4   0.0 0.00 0.00 52.6   3.8 64.9   0.7
Ranch 8 (Windsor-NW) 7/21/19 1045 62.2   0.2 79   1 55.6   0.1 1.8 SSE | 149 5.8   0.7 0.00 0.00 52.1   4.3 64.4   0.9
Foothill Ranch 16 7/21/19 1045 62.4   0.3 73   3 53.7   0.8 1.8 SSW | 205 5.4   0.5 0.00 0.00 51.9   4.1 63.8   1.6
Airport Ranch 14 7/21/19 1045 63.2   1.3 70   5 53.4   0.8 1.5 SW | 226 4.3   1.1 0.00 0.00 52.0   4.5 65.4   3.1
Silk Road 7/21/19 1045 63.2   0.3 72   3 54.0   0.8 2.1 SW | 215 6.8   0.9 0.00 0.00 52.2   4.8 63.6   0.3
Oak Meadows Ranch 5 7/21/19 1045 63.0   0.5 73   4 54.1   0.8 2.2 S | 178 5.7   0.6 0.00 0.00 51.9   4.7 65.1   1.9
Laughlin Rd (Windsor-South) 7/21/19 1045 63.0   0.4 72   3 54.0   0.5 - - - 0.00 0.00 52.1   4.4 65.5   2.4
Barnes Rd (SE Fulton) 7/21/19 1045 60.2   1.1 77   1 53.2   0.7 1.9 SSW | 210 5.1   1.4 0.00 0.00 51.7   4.4 60.9   1.0
Crinella Ranch 21 7/21/19 1045 61.8   0.4 75   0 53.9   0.5 2.0 SSE | 168 5.6   0.2 0.00 0.00 51.9   4.8 64.0   1.4
Denner Ranch Base 7/21/19 1045 61.0   0.6 78   1 54.1   0.4 2.8 SE | 144 7.0   1.1 0.00 0.00 51.4   4.8 62.2   0.3
Guerneville Road (Santa Rosa Plains) 7/21/19 1045 60.8   0.3 79   0 54.3   0.4 2.6 SW | 216 5.6   1.1 0.00 0.00 52.1   5.0 61.5   0.2
Rich Ranch (Guerneville Rd) 7/21/19 1045 63.9   1.1 70   5 54.1   1.0 - - - - - 52.4   4.4 65.3   2.1
Occidental Rd (Sebastopol) 7/21/19 1045 62.4   0.3 75   1 54.3   0.1 1.9 WSW | 237 5.9   0.4 0.00 0.00 51.8   4.9 63.6   0.2
Garrison Ranch 12 7/21/19 1045 64.3   1.5 68   3 53.7   0.2 1.7 SE | 146 4.3   0.2 0.00 0.00 52.3   4.2 66.1   3.0
Laughlin Rd (Guerneville) 7/21/19 1045 65.8   2.8 68   6 55.1   0.4 2.5 SSE | 154 6.0   1.1 0.00 0.00 53.4   3.5 66.6   3.3
Korbel Winery 7/21/19 1045 64.4   2.5 70   7 54.4   0.2 2.3 WNW | 297 4.6   1.2 0.00 0.00 53.5   3.4 64.6   2.1
Shone Farms (Forestville) 7/21/19 1045 63.0   0.6 74   2 54.4   0.2 2.2 SE | 136 5.7   0.3 0.00 0.00 51.3   4.4 64.7   1.0
Ranch 30 (Forestville-NE) 7/21/19 1045 65.3   3.0 70   7 55.2   0.2 2.1 SE | 143 6.6   0.2 0.00 0.00 51.9   4.1 67.2   4.1
Dutton Ranch (Graton-West) 7/21/19 1045 64.6   3.0 76   8 56.9   0.2 2.2 ENE | 74 5.6   0.7 0.00 0.00 52.2   4.5 67.1   4.9
Mill Station Rd (Graton-South) 7/21/19 1045 59.3   1.1 85   2 54.8   0.4 2.8 SW | 222 6.0   1.4 0.00 0.00 51.2   4.7 60.3   0.3
Burnside Road (Sebastopol Hills) 7/21/19 1045 56.4   1.5 93   4 54.5   0.4 4.3 WSW | 242 6.7   1.2 0.00 0.00 49.7   4.7 57.4   0.8
Hirsch Vineyards 7/21/19 1045 59.6   3.8 81   14 53.6   0.6 3.5 W | 262 4.7   0.2 0.00 0.00 49.1   0.9 63.3   7.1
Max     65.8 93 56.9 4.3 - 7.0 0.00 0.00 53.5 67.2
Avg     62.4 75 54.3 2.3 - 5.6 0.00 - - -
Min     56.4 68 53.2 1.5 - 4.3 0.00 0.00 49.1 57.4

Southern Sonoma County Latest

14 Stations

15 Minute Data | America/Los_Angeles
as of 7/21/19 10:47 AM PDT
Station Date Time Temp (°F) RH (%) Dew Pt (°F) Wind Spd (mph) Wind Dir (°) Wind Gust (mph) Latest Rain (In) Daily Rain (In) Daily Min Temp (°F) Daily Max Temp (°F)
Lower Bennett Valley 7/21/19 1045 64.8   4.6 69   16 54.5   1.1 4.5 N | 358 7.3   0.5 0.00 0.00 51.2   3.9 65.5   5.1
Kunde - Kenwood 7/21/19 1000 62.3   4.4 69   14 52.2   0.7 0.9 NNW | 330 5.3   1.6 0.00 0.00 48.8   5.3 62.9   4.6
Sonoma Valley (Bedrock) 7/21/19 1045 68.3   5.2 57   14 52.4   1.0 1.2 SW | 215 3.8   3.0 0.00 0.00 49.7   6.0 70.7   6.9
Arnold (Sonoma) 7/21/19 1045 67.0   3.8 63   12 54.1   1.2 2.6 NE | 55 5.7   0.1 0.00 0.00 47.9   9.8 68.0   4.3
Schellville 7/21/19 1045 67.3   2.5 63   10 54.4   1.6 1.0 SW | 223 4.1   3.4 0.00 0.00 51.4   7.1 68.6   3.7
Napoli (Sonoma-SE) 7/21/19 1045 68.0   3.5 60   12 53.6   1.8 2.2 S | 184 5.1   0.3 0.00 0.00 51.3   6.1 69.2   4.3
Diamond R71 (Carneros) 7/21/19 1045 64.8   2.1 67   10 53.7   1.9 2.9 W | 266 5.8   3.0 0.00 0.00 51.3   5.5 65.5   2.5
Huichica Upper 7/21/19 1045 63.2   1.1 70   7 53.4   1.6 3.3 WSW | 242 5.5   5.8 - - 51.4   5.1 64.3   1.6
Huichica-Lower 7/21/19 1045 64.8   1.0 71   6 55.1   1.2 1.2 SSW | 199 4.1   0.9 0.00 0.00 51.9   5.1 65.8   1.7
Stony Point (West Rohnert Park) 7/21/19 1045 59.4   1.7 85   2 54.8   1.0 2.5 WNW | 299 6.1   1.5 0.00 0.00 51.3   5.1 60.8   0.6
Asellus (Penngrove) 7/21/19 1045 62.7   2.0 74   11 54.3   1.9 5.6 W | 270 9.0   3.6 0.00 0.00 51.5   4.8 64.1   2.9
Rodger's Creek 7/21/19 1045 63.6   3.7 71   13 54.0   1.0 4.7 WSW | 256 10.6   1.7 0.00 0.00 49.4   5.3 64.4   3.5
Frates R10 (East Petaluma) 7/21/19 1045 68.5   4.6 61   13 54.4   1.1 3.6 WNW | 283 7.8   1.2 0.00 0.00 52.6   5.4 69.3   5.0
Sleepy Hollow-Lakeville 7/21/19 1045 66.8   2.3 66   7 54.9   0.6 2.9 WNW | 301 6.1   0.8 0.00 0.00 52.8   5.0 68.0   3.1
Max     68.5 85 55.1 5.6 - 10.6 0.00 0.00 52.8 70.7
Avg     65.1 68 54.0 2.8 - 6.2 0.00 - - -
Min     59.4 57 52.2 0.9 - 3.8 0.00 0.00 47.9 60.8